Location: Central Falls
(41.8900°N, 71.3929°W)
Time: 02:43:45
(UTC+00:00)

Tiros 1 - Pass Details

Date: 07 December 2023
Orbit: 625 x 658 km, 48.4° (Epoch: 01 March)

Event Time Altitude Azimuth Distance (km) Brightness Sun altitude
Rises 06:51:04 0° 200° (SSW) 2,952 - -56.0°
Reaches altitude 10° 06:53:50 10° 184° (S) 2,051 - -55.5°
Maximum altitude 06:57:25 22° 135° (SE) 1,438 - -54.9°
Drops below altitude 10° 07:01:03 10° 85° (E) 2,070 - -54.3°
Sets 07:03:50 0° 71° (ENE) 2,987 - -53.8°
